{"data":{"norad_id":57422,"epoch":"2026-09-18T08:43:23.052000Z","epoch_age_seconds":392215,"freshness":"STALE","line1":"1 57422U 23103B   26261.36346125 -.00002283  16377-5 -27414-5 0  9995","line2":"2 57422  96.1200 299.3206 0006862 280.5458  79.5053 16.04074311182259","mean_motion":16.04074311,"eccentricity":0.0006862,"inclination_deg":96.12,"raan_deg":299.3206,"arg_perigee_deg":280.5458,"mean_anomaly_deg":79.5053,"bstar":-2.7414e-6,"rev_number":18225,"period_min":89.771402118041,"perigee_km":258.59178675051,"apogee_km":267.70628770801,"semimajor_km":6641.2860372293,"source":"CELESTRAK","updated_at":"2026-09-22T09:00:26.192027Z"}}